Rzeszow/Jasionka, Poland

7:18 AM CET on February 23, 2017 (GMT +0100)
Jasionka

Weather History for EPRZ - January, 2013

Change the Weather History Date:

Thursday, January 3, 2013

  Actual Average Record
Temperature  
Mean Temperature 34 °F -  
Max Temperature 41 °F 32 °F 45 °F (2014)
Min Temperature 30 °F 22 °F -4 °F (2002)
Degree Days  
Heating Degree Days 32    
Moisture  
Dew Point 31 °F    
Average Humidity 85    
Maximum Humidity 100    
Minimum Humidity 65    
Precipitation  
Precipitation 0.02 in - - ()
Sea Level Pressure  
Sea Level Pressure 30.21 in    
Wind  
Wind Speed 12 mph ()    
Max Wind Speed 24 mph    
Max Gust Speed -    
Visibility 4.9 miles    
Events Rain , Snow    
Averages and records for this station are not official NWS values.
T = Trace of Precipitation, MM = Missing Value Source: Averaged Metar Reports

Daily Weather History Graph

Daily Weather History Graph

Search for Another Location

Airport or City:

Trip Planner

Search our weather history database for the weather conditions in past years. The results will help you decide how hot, cold, wet, or windy it might be!

Date:

Astronomy

Jan. 03, 2013 Rise Set
Actual Time 7:30 AM CET 3:42 PM CET
Civil Twilight 6:52 AM CET 4:20 PM CET
Nautical Twilight 6:11 AM CET 5:01 PM CET
Astronomical Twilight 5:31 AM CET 5:41 PM CET
Moon 10:39 PM CET (1/3) 9:55 AM CET (1/3)
Length of Visible Light 9h 28m
Length of Day
8h 11m
Waning Gibbous, 68% of the Moon is Illuminated
Jan 3
Waning Gibbous
Jan 5
Last Quarter
Jan 11
New
Jan 19
First Quarter
Jan 27
Full

Hourly Weather History & Observations

Time (CET) Temp. Windchill Dew Point Humidity Pressure Visibility Wind Dir Wind Speed Gust Speed Precip Events Conditions
12:00 AM 33.8 °F 27.7 °F 30.2 °F 87% 30.27 in 6.2 mi WSW 6.9 mph - N/A   Overcast
12:30 AM 35.6 °F 27.1 °F 30.2 °F 81% 30.27 in 6.2 mi West 12.7 mph - N/A   Overcast
1:00 AM 35 °F - 31 °F 79% 30.33 in 6 mi West 11.2 mph - -   Overcast
1:00 AM 35.6 °F 27.1 °F 30.2 °F 81% 30.27 in 6.2 mi West 12.7 mph - N/A   Overcast
1:30 AM 35.6 °F 27.5 °F 30.2 °F 81% 30.30 in 6.2 mi West 11.5 mph - N/A   Overcast
2:00 AM 35.6 °F 27.5 °F 32.0 °F 87% 30.30 in 6.2 mi West 11.5 mph - N/A   Overcast
2:30 AM 35.6 °F 27.1 °F 33.8 °F 93% 30.30 in 6.2 mi West 12.7 mph - N/A   Overcast
3:00 AM 35.6 °F 26.6 °F 30.2 °F 81% 30.30 in 6.2 mi West 13.8 mph - N/A   Overcast
3:30 AM 33.8 °F 24.8 °F 30.2 °F 87% 30.30 in 6.2 mi West 12.7 mph - N/A   Mostly Cloudy
4:00 AM 34 °F - 31 °F 86% 30.35 in 6 mi West 13.4 mph - -   Mostly Cloudy
4:00 AM 33.8 °F 24.8 °F 32.0 °F 93% 30.30 in 6.2 mi West 12.7 mph - N/A   Mostly Cloudy
4:30 AM 33.8 °F 24.8 °F 32.0 °F 93% 30.30 in 6.2 mi West 12.7 mph - N/A   Overcast
5:00 AM 35.6 °F 27.5 °F 32.0 °F 87% 30.30 in 6.2 mi West 11.5 mph - N/A   Scattered Clouds
5:30 AM 35.6 °F 28.0 °F 32.0 °F 87% 30.30 in 6.2 mi West 10.4 mph - N/A   Partly Cloudy
6:00 AM 35.6 °F 28.0 °F 32.0 °F 87% 30.30 in 6.2 mi WSW 10.4 mph - N/A   Partly Cloudy
6:30 AM 35.6 °F 28.6 °F 32.0 °F 87% 30.30 in - WSW 9.2 mph - N/A   Clear
7:00 AM 36 °F - 31 °F 74% 30.34 in 6 mi SW 11.2 mph - -   Partly Cloudy
7:00 AM 35.6 °F 28.6 °F 30.2 °F 81% 30.30 in - WSW 9.2 mph - N/A   Clear
7:30 AM 37.4 °F 30.8 °F 30.2 °F 75% 30.30 in - WSW 9.2 mph - N/A   Clear
8:00 AM 37.4 °F 31.4 °F 30.2 °F 75% 30.30 in - WSW 8.1 mph - N/A   Clear
8:30 AM 37.4 °F 29.8 °F 30.2 °F 75% 30.30 in - WSW 11.5 mph - N/A   Clear
9:00 AM 37.4 °F 29.8 °F 28.4 °F 70% 30.30 in - WSW 11.5 mph - N/A   Clear
9:30 AM 37.4 °F 30.3 °F 30.2 °F 75% 30.27 in - SW 10.4 mph - N/A   Clear
10:00 AM 36 °F - 28 °F 65% 30.33 in 12 mi SW 13.4 mph - -   Mostly Cloudy
10:00 AM 35.6 °F 26.6 °F 28.4 °F 75% 30.27 in - SW 13.8 mph - N/A   Clear
10:30 AM 35.6 °F 26.6 °F 28.4 °F 75% 30.27 in - SW 13.8 mph - N/A   Clear
11:00 AM 35.6 °F 26.2 °F 26.6 °F 70% 30.27 in - SW 15.0 mph - N/A   Clear
11:30 AM 35.6 °F 25.9 °F 26.6 °F 70% 30.27 in - SW 16.1 mph - N/A   Clear
12:00 PM 35.6 °F 25.9 °F 26.6 °F 70% 30.27 in - SW 16.1 mph - N/A   Clear
12:30 PM 33.8 °F 23.2 °F 26.6 °F 75% 30.21 in - SSW 17.3 mph - N/A   Clear
1:00 PM 34 °F - 27 °F 65% 30.26 in 12 mi SSW 15.7 mph - -   Overcast
1:00 PM 33.8 °F 24.3 °F 26.6 °F 75% 30.21 in 6.2 mi SSW 13.8 mph - N/A   Scattered Clouds
1:30 PM 33.8 °F 22.5 °F 26.6 °F 75% 30.18 in 6.2 mi SSW 19.6 mph - N/A Snow Light Snow Showers
2:00 PM 32.0 °F 20.8 °F 28.4 °F 87% 30.18 in 3.1 mi SSW 17.3 mph - N/A Snow Snow Showers
2:30 PM 32.0 °F 20.8 °F 26.6 °F 80% 30.18 in 6.2 mi SSW 17.3 mph - N/A   Scattered Clouds
3:00 PM 32.0 °F 21.2 °F 28.4 °F 87% 30.15 in 2.5 mi SSW 16.1 mph - N/A Snow Snow Showers
3:30 PM 30.2 °F 18.1 °F 28.4 °F 93% 30.15 in 3.1 mi SW 18.4 mph - N/A Snow Snow Showers
4:00 PM 30 °F - 27 °F 83% 30.20 in 4 mi SW 20.1 mph - - Snow Light Snow Showers
4:00 PM 30.2 °F 18.5 °F 28.4 °F 93% 30.15 in 4.3 mi SW 17.3 mph - N/A Snow Light Snow Showers
4:30 PM 30.2 °F 17.8 °F 28.4 °F 93% 30.15 in 5.0 mi SW 19.6 mph - N/A Snow Light Snow Showers
5:00 PM 30.2 °F 18.5 °F 26.6 °F 86% 30.15 in 5.0 mi SW 17.3 mph - N/A Snow Light Snow Showers
5:30 PM 30.2 °F 18.1 °F 28.4 °F 93% 30.15 in 6.2 mi SW 18.4 mph - N/A   Mostly Cloudy
6:00 PM 30.2 °F 18.1 °F 30.2 °F 100% 30.12 in 5.0 mi SW 18.4 mph - N/A Snow Light Snow Showers
6:30 PM 32.0 °F 20.5 °F 30.2 °F 93% 30.12 in 4.3 mi SW 18.4 mph - N/A Snow Light Snow Showers
7:00 PM 32 °F - 31 °F 93% 30.16 in 4 mi SW 15.7 mph - - Snow Light Snow Showers
7:00 PM 32.0 °F 21.2 °F 32.0 °F 100% 30.09 in 4.3 mi SW 16.1 mph - N/A Snow Light Snow Showers
7:30 PM 32.0 °F 21.2 °F 32.0 °F 100% 30.09 in 2.5 mi SW 16.1 mph - N/A   Light Drizzle
8:00 PM 33.8 °F 23.5 °F 33.8 °F 100% 30.09 in 1.9 mi SW 16.1 mph - N/A   Light Drizzle
8:30 PM 35.6 °F 25.9 °F 33.8 °F 93% 30.09 in 1.6 mi SW 16.1 mph - N/A   Light Drizzle
9:00 PM 35.6 °F 26.6 °F 33.8 °F 93% 30.06 in 1.6 mi SW 13.8 mph - N/A   Drizzle
9:30 PM 35.6 °F 26.2 °F 35.6 °F 100% 30.06 in 1.6 mi SW 15.0 mph - N/A Rain Light Rain
10:00 PM 36 °F - 35 °F 97% 30.09 in 2 mi SW 15.7 mph - - Rain Drizzle
10:00 PM 35.6 °F 26.2 °F 35.6 °F 100% 30.04 in 1.6 mi SW 15.0 mph - N/A   Drizzle
10:30 PM 37.4 °F 28.5 °F 35.6 °F 93% 30.04 in 1.6 mi SW 15.0 mph - N/A   Light Drizzle
11:00 PM 37.4 °F 28.9 °F 37.4 °F 100% 30.04 in 1.9 mi SW 13.8 mph - N/A   Light Drizzle
11:30 PM 41.0 °F 30.9 °F 41.0 °F 100% 30.01 in 3.7 mi West 24.2 mph - N/A Rain Rain Showers